Le Mars, IA

11:19 AM CDT on October 14, 2019 (GMT -0500)
Le Mars Municipal

Weather History for KLRJ - September, 2019

Change the Weather History Date:

Tuesday, September 17, 2019

  Actual Average Record
Temperature  
Mean Temperature 81 °F -  
Max Temperature 87 °F 75 °F 93 °F (1983)
Min Temperature 75 °F 50 °F 30 °F (1971)
Cooling Degree Days 16    
Growing Degree Days 31 (Base 50)    
Moisture  
Dew Point 71 °F    
Average Humidity 75    
Maximum Humidity 89    
Minimum Humidity 55    
Precipitation  
Precipitation 0.00 in - - ()
Sea Level Pressure  
Sea Level Pressure 29.89 in    
Wind  
Wind Speed 16 mph (SSE)    
Max Wind Speed 26 mph    
Max Gust Speed 33 mph    
Visibility 10 miles    
Events      
Averages and records for this station are not official NWS values.
T = Trace of Precipitation, MM = Missing Value Source: NWS Daily Summary

Daily Weather History Graph

Daily Weather History Graph

Search for Another Location

Airport or City:

Astronomy

Sep. 17, 2019 Rise Set
Actual Time 7:06 AM CDT 7:31 PM CDT
Civil Twilight 6:38 AM CDT 7:59 PM CDT
Nautical Twilight 6:04 AM CDT 8:32 PM CDT
Astronomical Twilight 5:30 AM CDT 9:07 PM CDT
Moon 9:30 PM CDT (9/17) 10:15 AM CDT (9/17)
Length of Visible Light 13h 21m
Length of Day
12h 24m
Waning Gibbous, 89% of the Moon is Illuminated
Sep 17
Waning Gibbous
Sep 21
Last Quarter
Sep 28
New
Oct 5
First Quarter
Oct 13
Full

Hourly Weather History & Observations

Time (CDT) Temp. Heat Index Dew Point Humidity Pressure Visibility Wind Dir Wind Speed Gust Speed Precip Events Conditions
12:15 AM 77.0 °F - 73.4 °F 89% 29.93 in 10.0 mi SSE 11.5 mph - N/A   Clear
12:35 AM 77.0 °F - 73.4 °F 89% 29.93 in 10.0 mi SSE 11.5 mph - N/A   Clear
12:55 AM 77.0 °F - 71.6 °F 83% 29.92 in 10.0 mi SSE 13.8 mph 20.7 mph N/A   Clear
1:15 AM 77.0 °F - 71.6 °F 83% 29.92 in 10.0 mi SSE 13.8 mph 20.7 mph N/A   Clear
1:35 AM 77.0 °F - 71.6 °F 83% 29.92 in 10.0 mi South 17.3 mph - N/A   Clear
1:55 AM 77.0 °F - 71.6 °F 83% 29.92 in 10.0 mi South 16.1 mph - N/A   Clear
2:15 AM 77.0 °F - 71.6 °F 83% 29.92 in 10.0 mi South 13.8 mph - N/A   Clear
2:55 AM 75.2 °F - 71.6 °F 89% 29.92 in 10.0 mi South 12.7 mph 18.4 mph N/A   Clear
3:15 AM 75.2 °F - 71.6 °F 89% 29.92 in 10.0 mi South 13.8 mph 19.6 mph N/A   Clear
3:35 AM 75.2 °F - 71.6 °F 89% 29.91 in 10.0 mi South 15.0 mph - N/A   Clear
3:55 AM 75.2 °F - 71.6 °F 89% 29.91 in 10.0 mi South 15.0 mph - N/A   Clear
4:15 AM 75.2 °F - 71.6 °F 89% 29.91 in 10.0 mi South 15.0 mph - N/A   Partly Cloudy
4:35 AM 75.2 °F - 71.6 °F 89% 29.91 in 10.0 mi SSE 17.3 mph - N/A   Mostly Cloudy
4:55 AM 75.2 °F - 71.6 °F 89% 29.91 in 10.0 mi SSE 16.1 mph 23.0 mph N/A   Mostly Cloudy
5:15 AM 75.2 °F - 71.6 °F 89% 29.91 in 10.0 mi South 16.1 mph 21.9 mph N/A   Mostly Cloudy
5:35 AM 75.2 °F - 71.6 °F 89% 29.92 in 10.0 mi South 12.7 mph - N/A   Mostly Cloudy
5:55 AM 75.2 °F - 71.6 °F 89% 29.92 in 10.0 mi South 13.8 mph - N/A   Mostly Cloudy
6:15 AM 75.2 °F - 71.6 °F 89% 29.92 in 10.0 mi South 13.8 mph 20.7 mph N/A   Mostly Cloudy
6:35 AM 75.2 °F - 71.6 °F 89% 29.92 in 10.0 mi South 16.1 mph - N/A   Mostly Cloudy
6:55 AM 75.2 °F - 71.6 °F 89% 29.92 in 10.0 mi South 13.8 mph - N/A   Partly Cloudy
7:15 AM 75.2 °F - 71.6 °F 89% 29.93 in 10.0 mi South 16.1 mph 25.3 mph N/A   Partly Cloudy
7:35 AM 75.2 °F - 71.6 °F 89% 29.94 in 10.0 mi South 15.0 mph 21.9 mph N/A   Scattered Clouds
7:55 AM 75.2 °F - 71.6 °F 89% 29.94 in 10.0 mi South 15.0 mph 21.9 mph N/A   Mostly Cloudy
8:15 AM 75.2 °F - 71.6 °F 89% 29.93 in 10.0 mi South 16.1 mph - N/A   Scattered Clouds
8:35 AM 75.2 °F - 71.6 °F 89% 29.93 in 10.0 mi South 16.1 mph - N/A   Mostly Cloudy
8:55 AM 77.0 °F - 71.6 °F 83% 29.93 in 10.0 mi South 16.1 mph 23.0 mph N/A   Partly Cloudy
9:15 AM 77.0 °F - 71.6 °F 83% 29.93 in 10.0 mi South 17.3 mph - N/A   Clear
9:35 AM 78.8 °F - 71.6 °F 78% 29.93 in 10.0 mi South 16.1 mph 27.6 mph N/A   Clear
9:55 AM 78.8 °F - 71.6 °F 78% 29.92 in 10.0 mi South 20.7 mph 27.6 mph N/A   Clear
10:15 AM 80.6 °F 84.6 °F 71.6 °F 74% 29.92 in 10.0 mi South 17.3 mph 24.2 mph N/A   Clear
10:35 AM 80.6 °F 83.9 °F 69.8 °F 70% 29.92 in 10.0 mi South 19.6 mph 26.5 mph N/A   Clear
10:55 AM 80.6 °F 84.6 °F 71.6 °F 74% 29.92 in 10.0 mi South 19.6 mph - N/A   Clear
11:15 AM 82.4 °F 86.3 °F 69.8 °F 66% 29.92 in 10.0 mi South 20.7 mph 27.6 mph N/A   Clear
11:35 AM 82.4 °F 87.2 °F 71.6 °F 70% 29.92 in 10.0 mi South 17.3 mph 27.6 mph N/A   Clear
11:55 AM 84.2 °F 89.6 °F 71.6 °F 66% 29.91 in 10.0 mi South 19.6 mph 28.8 mph N/A   Clear
12:15 PM 84.2 °F 89.6 °F 71.6 °F 66% 29.91 in 10.0 mi South 21.9 mph - N/A   Clear
12:35 PM 84.2 °F 89.6 °F 71.6 °F 66% 29.90 in 10.0 mi South 21.9 mph 31.1 mph N/A   Clear
12:55 PM 86.0 °F 91.8 °F 71.6 °F 62% 29.89 in 10.0 mi South 24.2 mph - N/A   Clear
1:15 PM 86.0 °F 91.8 °F 71.6 °F 62% 29.89 in 10.0 mi South 21.9 mph 27.6 mph N/A   Clear
1:35 PM 86.0 °F 91.8 °F 71.6 °F 62% 29.89 in 10.0 mi South 20.7 mph 27.6 mph N/A   Clear
1:55 PM 86.0 °F 90.4 °F 69.8 °F 58% 29.88 in 10.0 mi SSE 23.0 mph - N/A   Clear
2:15 PM 87.8 °F 93.8 °F 71.6 °F 58% 29.87 in 10.0 mi SSE 20.7 mph 29.9 mph N/A   Clear
2:35 PM 87.8 °F 92.6 °F 69.8 °F 55% 29.86 in 10.0 mi SSE 23.0 mph 29.9 mph N/A   Clear
2:55 PM 87.8 °F 92.6 °F 69.8 °F 55% 29.86 in 10.0 mi South 26.5 mph 32.2 mph N/A   Clear
3:15 PM 87.8 °F 92.6 °F 69.8 °F 55% 29.86 in 10.0 mi South 21.9 mph 29.9 mph N/A   Clear
3:35 PM 87.8 °F 92.6 °F 69.8 °F 55% 29.85 in 10.0 mi SSE 25.3 mph - N/A   Clear
3:55 PM 87.8 °F 92.6 °F 69.8 °F 55% 29.85 in 10.0 mi SSE 23.0 mph 31.1 mph N/A   Clear
4:15 PM 86.0 °F 90.4 °F 69.8 °F 58% 29.84 in 10.0 mi SSE 23.0 mph 31.1 mph N/A   Clear
4:35 PM 87.8 °F 92.6 °F 69.8 °F 55% 29.84 in 10.0 mi SSE 23.0 mph - N/A   Clear
4:55 PM 87.8 °F 92.6 °F 69.8 °F 55% 29.83 in 10.0 mi SSE 21.9 mph 28.8 mph N/A   Clear
5:15 PM 86.0 °F 90.4 °F 69.8 °F 58% 29.83 in 10.0 mi SSE 18.4 mph 33.4 mph N/A   Clear
5:35 PM 86.0 °F 90.4 °F 69.8 °F 58% 29.83 in 10.0 mi SSE 17.3 mph 24.2 mph N/A   Clear
5:55 PM 86.0 °F 90.4 °F 69.8 °F 58% 29.82 in 10.0 mi SSE 15.0 mph 28.8 mph N/A   Clear
6:15 PM 86.0 °F 90.4 °F 69.8 °F 58% 29.82 in 10.0 mi SSE 16.1 mph 23.0 mph N/A   Clear
6:35 PM 84.2 °F 88.4 °F 69.8 °F 62% 29.82 in 10.0 mi SSE 16.1 mph 21.9 mph N/A   Clear
6:55 PM 82.4 °F 86.3 °F 69.8 °F 66% 29.82 in 10.0 mi SSE 12.7 mph - N/A   Clear
7:15 PM 82.4 °F 86.3 °F 69.8 °F 66% 29.83 in 10.0 mi SSE 12.7 mph 20.7 mph N/A   Clear
7:35 PM 80.6 °F 83.9 °F 69.8 °F 70% 29.83 in 10.0 mi SSE 11.5 mph 18.4 mph N/A   Clear
7:55 PM 80.6 °F 83.9 °F 69.8 °F 70% 29.83 in 10.0 mi SSE 13.8 mph - N/A   Clear
8:55 PM 78.8 °F - 69.8 °F 74% 29.84 in 10.0 mi SE 10.4 mph 17.3 mph N/A   Clear
9:15 PM 78.8 °F - 69.8 °F 74% 29.84 in 10.0 mi SE 15.0 mph 21.9 mph N/A   Clear
9:35 PM 78.8 °F - 69.8 °F 74% 29.84 in 10.0 mi SE 17.3 mph - N/A   Clear
9:55 PM 77.0 °F - 69.8 °F 78% 29.85 in 10.0 mi SSE 13.8 mph 19.6 mph N/A   Clear
10:15 PM 77.0 °F - 69.8 °F 78% 29.85 in 10.0 mi SE 11.5 mph 19.6 mph N/A   Clear
10:35 PM 77.0 °F - 69.8 °F 78% 29.85 in 10.0 mi SSE 12.7 mph - N/A   Clear
10:55 PM 77.0 °F - 69.8 °F 78% 29.85 in 10.0 mi SSE 15.0 mph - N/A   Clear
11:15 PM 77.0 °F - 69.8 °F 78% 29.85 in 10.0 mi SSE 13.8 mph - N/A   Clear
11:35 PM 77.0 °F - 69.8 °F 78% 29.85 in 10.0 mi SSE 16.1 mph - N/A   Clear
11:55 PM 77.0 °F - 69.8 °F 78% 29.84 in 10.0 mi SSE 17.3 mph - N/A   Clear